Temp
68 64 60 64 66 65 62 60 59 63 67 64 65 66 69 73 74 73 71 71 72 74 79 79 77 78 79 78 78 77 78 76 76 81 80 87 86 86 86 87 87 86 87 86
63 59 65 65 64 62 61 59 59 63 66 63 63 63 69 72 72 75 75 74 73 74 75 75 77 78 73 75 75 76 76 76 77 82 80 78 81 88 91 92 88 86 85 84
60 63 66 63 61 59 60 58 58 57 62 65 63 60 65 71 73 75 76 78 77 74 71 72 74 74 76 75 75 75 74 75 76 76 80 82 83 84 86 88 89 87 85 84
62 66 62 61 59 61 56 63 60 57 56 52 62 50 62 66 67 70 72 74 75 74 73 71 72 73 74 75 76 75 75 74 77 76 78 76 78 81 88 91 93 91 86 85
59 61 60 58 60 64 59 62 60 58 56 56 57 52 61 64 62 66 70 72 74 74 74 73 73 71 76 77 77 76 74 74 74 74 74 76 76 83 87 89 86 86 86 85
64 68 64 64 63 64 64 60 60 60 57 47 56 54 59 60 63 66 69 72 72 74 74 74 75 76 76 77 77 76 75 74 75 74 75 73 72 73 78 82 85 87 87 87
61 62 65 65 60 63 61 55 47 46 46 47 55 51 58 64 66 68 68 70 73 73 74 74 74 76 75 76 76 74 74 73 75 75 74 74 73 73 72 74 81 82 84 82
51 49 60 64 61 58 58 55 47 35 43 51 54 47 58 66 68 69 69 70 71 72 74 74 75 75 76 76 75 75 75 73 73 73 74 75 75 77 78 78 81 82 83 84
53 51 62 62 64 62 56 51 58 49 51 46 51 56 62 65 65 66 67 68 69 71 72 73 76 75 75 75 74 74 74 74 75 75 74 73 75 74 75 75 77 85 83 88
57 47 60 61 62 62 58 61 47 49 37 38 49 50 55 58 60 64 65 66 69 71 72 74 75 75 76 76 75 75 75 74 75 75 75 76 75 76 77 76 76 78 84 86
60 53 53 56 54 53 55 52 51 50 47 39 40 52 62 60 62 61 64 67 69 70 72 73 75 76 77 77 77 75 74 74 74 74 74 74 75 76 76 77 78 79 82 84
59 53 47 51 60 60 58 54 55 44 41 47 46 48 65 64 65 64 65 68 70 70 72 73 74 75 75 75 75 74 73 73 74 74 74 73 74 74 73 75 78 79 81 84
56 50 42 46 51 54 50 55 55 54 52 44 43 50 64 64 64 67 65 68 69 69 70 72 73 73 73 74 73 73 73 72 72 73 74 72 72 72 71 73 76 79 81 84
56 50 45 41 47 48 45 50 53 51 42 46 49 52 59 62 63 65 65 67 68 69 69 71 71 72 73 73 73 73 72 72 71 71 72 70 70 71 71 72 76 78 82 83
53 44 48 49 50 50 49 49 50 49 50 42 49 51 58 62 63 65 65 66 66 67 68 69 70 71 71 71 71 71 71 70 69 68 70 69 69 71 71 70 77 78 81 84
55 42 47 45 51 51 46 50 52 53 53 53 54 53 64 66 68 65 65 65 65 66 68 69 70 70 69 69 69 69 68 67 67 66 68 69 68 69 68 69 77 78 81 83
48 44 41 39 48 48 40 48 51 53 56 55 50 58 64 61 61 63 64 65 64 65 67 68 68 68 67 68 68 66 66 66 63 64 67 67 66 67 65 72 78 78 79 82
44 41 39 38 42 28 50 58 56 53 56 60 60 61 63 62 62 66 68 66 65 66 64 65 67 67 68 69 67 64 62 62 62 64 65 64 64 64 64 74 78 79 80 80
51 44 34 32 35 43 47 52 51 49 50 59 59 61 62 63 63 63 69 67 61 62 64 65 68 68 67 66 64 61 60 57 57 58 58 64 64 61 65 76 78 79 78 79
41 42 36 36 28 29 43 52 56 55 43 57 57 57 57 60 51 58 66 62 63 66 66 66 66 66 64 63 61 58 58 57 55 54 58 61 57 60 67 74 75 76 77 76
35 33 31 34 31 41 50 53 56 36 40 54 57 57 57 52 57 57 60 63 65 65 65 65 63 58 58 60 59 57 59 55 54 56 56 56 58 65 70 69 70 71 71 70
37 36 34 35 32 30 53 52 41 50 55 54 54 54 52 55 58 61 63 63 63 62 63 59 56 57 58 59 57 57 55 58 58 56 55 58 64 66 67 68 68 68 68 68
39 45 37 40 41 54 57 53 55 54 45 45 47 51 56 57 59 62 61 62 62 60 54 55 55 55 57 58 56 56 60 61 59 58 61 61 66 66 67 66 66 66 68 70
47 50 44 43 49 51 51 54 55 55 53 55 55 55 58 57 60 60 61 61 60 54 52 54 54 54 57 59 60 61 64 66 64 61 62 62 63 63 65 66 66 66 69 68
40 42 37 43 50 46 52 51 53 53 55 56 59 60 59 59 59 58 56 55 52 51 53 53 52 53 54 55 58 65 68 68 64 61 62 62 62 63 63 63 70 74 73 71
38 37 33 34 42 37 39 49 52 56 56 57 56 54 56 54 49 50 49 49 50 52 53 50 51 52 53 55 57 66 69 69 63 59 61 59 60 62 67 70 64 42 47 46
MSLP
1008.91 1008.23 1007.31 1006.85 1007.12 1006.91 1006.91 1006.49 1005.96 1006.03 1006.39 1006.74 1005.66 1005.17 1004.89 1005.35 1005.59 1005.79 1006.23 1006.70 1006.54 1006.76 1007.12 1007.59 1007.54 1008.25 1008.05 1007.64 1008.02 1008.51 1008.31 1008.28 1007.72 1006.89 1007.10 1005.75 1006.44 1006.61 1006.67 1006.39 1006.43 1006.62 1006.88 1007.46
1008.75 1007.71 1007.58 1008.21 1008.05 1007.72 1007.39 1006.70 1006.30 1006.48 1006.79 1006.81 1006.00 1005.12 1004.69 1004.61 1004.69 1004.67 1005.01 1005.48 1006.22 1006.87 1007.49 1007.88 1007.81 1007.95 1008.50 1007.72 1008.24 1008.71 1008.59 1008.35 1007.91 1006.85 1006.14 1006.37 1006.87 1006.25 1005.85 1005.21 1005.45 1005.97 1006.41 1006.86
1007.78 1007.38 1008.13 1008.13 1007.93 1007.72 1007.34 1006.94 1006.67 1007.04 1006.88 1006.83 1005.70 1004.27 1003.41 1003.28 1003.90 1003.99 1004.36 1004.86 1005.43 1006.55 1007.22 1007.57 1007.68 1007.22 1007.97 1007.90 1008.01 1008.72 1008.47 1008.33 1008.28 1008.15 1007.56 1007.17 1006.82 1006.62 1005.92 1004.87 1004.59 1005.00 1005.59 1006.06
1007.79 1007.88 1008.23 1008.03 1007.80 1007.80 1006.95 1007.38 1007.76 1007.63 1007.32 1005.90 1006.15 1003.90 1002.81 1003.21 1003.32 1003.79 1004.38 1004.92 1005.56 1006.44 1007.06 1007.73 1007.85 1008.18 1008.51 1008.60 1008.56 1008.51 1007.75 1008.07 1008.00 1008.07 1007.49 1007.26 1006.82 1005.78 1004.65 1003.76 1003.44 1004.00 1004.67 1005.26
1007.33 1007.84 1008.00 1007.76 1007.51 1007.71 1007.45 1007.96 1008.02 1007.81 1007.22 1006.33 1005.22 1004.44 1002.21 1003.23 1003.24 1003.61 1004.17 1004.77 1005.62 1006.29 1006.93 1007.37 1007.64 1008.06 1007.87 1007.83 1007.76 1007.72 1007.47 1007.48 1007.64 1007.73 1007.56 1006.77 1006.12 1005.24 1004.17 1003.72 1003.59 1003.69 1003.98 1004.46
1007.63 1007.97 1008.12 1007.69 1007.97 1008.10 1008.13 1008.27 1007.93 1007.43 1006.93 1005.35 1004.08 1003.98 1001.63 1002.71 1003.00 1003.72 1004.29 1004.70 1005.38 1006.01 1006.51 1006.92 1007.14 1007.15 1007.24 1007.39 1007.49 1007.57 1007.62 1007.43 1006.68 1006.72 1006.82 1006.53 1006.01 1005.69 1004.86 1004.19 1003.49 1003.13 1003.06 1003.19
1006.83 1007.28 1007.64 1008.14 1007.85 1008.31 1008.28 1007.80 1006.56 1005.73 1005.24 1004.08 1004.51 1004.51 1002.67 1003.00 1003.61 1003.98 1004.39 1004.86 1005.18 1005.68 1005.86 1006.12 1006.20 1006.24 1006.69 1006.78 1006.96 1006.93 1006.60 1006.17 1006.22 1006.19 1006.10 1005.80 1005.61 1005.21 1004.67 1004.02 1003.44 1002.82 1002.42 1002.57
1006.45 1006.25 1007.05 1007.63 1007.52 1007.08 1007.19 1007.67 1006.75 1005.77 1004.47 1003.54 1004.68 1003.60 1002.43 1003.45 1004.09 1004.45 1004.74 1004.87 1005.10 1005.19 1005.45 1005.78 1005.82 1006.05 1006.21 1006.29 1006.30 1006.24 1006.23 1006.16 1006.05 1005.78 1005.49 1005.16 1004.93 1004.18 1003.68 1003.17 1002.70 1002.20 1001.94 1001.59
1006.51 1006.44 1007.30 1007.86 1007.81 1008.05 1007.12 1007.79 1007.58 1007.06 1006.22 1005.24 1003.93 1003.21 1003.60 1003.96 1004.09 1004.51 1004.68 1005.04 1005.14 1005.25 1005.71 1005.70 1005.56 1005.68 1005.58 1005.63 1005.74 1005.87 1005.87 1005.71 1005.45 1005.25 1005.02 1004.66 1004.14 1003.80 1003.33 1002.98 1002.47 1001.33 1001.19 1000.92
1007.43 1007.29 1007.00 1007.46 1008.53 1008.29 1008.23 1007.92 1007.83 1007.57 1006.06 1004.21 1002.82 1002.63 1002.27 1003.32 1003.85 1004.40 1004.71 1005.01 1005.16 1005.31 1005.33 1004.99 1004.99 1005.06 1005.20 1005.22 1005.06 1004.89 1004.92 1004.79 1004.74 1004.79 1004.42 1003.89 1003.44 1003.01 1002.54 1002.31 1001.75 1001.26 1000.56 1000.36
1008.22 1008.28 1007.63 1008.14 1007.80 1007.44 1007.54 1007.87 1008.18 1007.75 1006.69 1005.44 1003.62 1002.18 1003.05 1003.64 1003.94 1004.37 1004.81 1004.93 1004.97 1004.89 1004.66 1004.59 1004.43 1004.45 1004.48 1004.52 1004.53 1004.66 1004.60 1004.20 1004.04 1003.97 1003.48 1003.09 1002.72 1002.29 1001.99 1001.33 1000.80 1000.54 1000.25 999.86
1008.62 1008.74 1007.70 1007.21 1007.26 1007.90 1007.82 1007.22 1007.05 1007.11 1006.62 1005.96 1005.01 1003.21 1003.06 1003.68 1003.86 1004.24 1004.24 1004.02 1004.13 1004.25 1004.13 1003.97 1003.81 1003.80 1003.75 1003.75 1003.85 1003.89 1004.12 1004.10 1003.55 1003.06 1002.66 1002.20 1001.85 1001.51 1001.29 1000.78 1000.02 999.84 999.07 998.84
1009.18 1008.88 1008.03 1006.94 1007.91 1008.28 1008.03 1007.57 1007.51 1007.06 1006.71 1005.40 1004.11 1002.51 1003.41 1003.58 1003.51 1003.33 1003.58 1003.55 1003.58 1003.59 1003.60 1003.41 1003.21 1003.10 1003.04 1002.91 1003.10 1003.18 1003.25 1003.19 1003.12 1002.34 1001.73 1001.27 1000.91 1000.67 1000.49 999.97 999.18 998.69 998.18 998.08
1010.05 1009.49 1008.83 1007.74 1006.53 1008.22 1007.88 1007.43 1007.27 1006.93 1006.23 1005.23 1003.58 1002.87 1002.65 1002.70 1002.70 1003.00 1003.20 1003.39 1003.20 1003.05 1003.03 1003.03 1002.88 1002.57 1002.44 1002.30 1002.34 1002.46 1002.45 1002.40 1002.25 1001.62 1000.91 1000.43 1000.09 999.79 999.58 998.99 998.10 997.45 997.29 997.08
1010.18 1009.43 1009.05 1008.51 1008.11 1007.86 1007.59 1007.25 1006.88 1006.18 1005.95 1005.03 1003.67 1002.63 1002.35 1002.43 1002.49 1002.47 1002.96 1003.17 1002.80 1002.56 1002.47 1002.27 1002.12 1002.04 1001.97 1001.72 1001.56 1001.66 1001.77 1001.81 1001.64 1001.25 1000.29 999.61 999.29 998.68 998.23 997.85 996.75 996.41 996.25 995.99
1009.88 1009.60 1009.58 1008.54 1008.10 1007.45 1006.86 1006.55 1005.75 1005.17 1004.68 1003.81 1003.06 1001.86 1002.40 1001.85 1002.02 1002.26 1002.53 1002.61 1002.47 1002.16 1001.73 1001.58 1001.50 1001.22 1001.11 1001.28 1001.08 1000.93 1001.00 1000.98 1000.92 1000.19 999.26 998.67 998.24 997.62 997.12 996.51 995.37 995.37 995.26 995.15
1010.18 1010.17 1009.75 1008.49 1007.82 1007.04 1006.25 1005.02 1004.62 1003.96 1003.49 1003.03 1002.08 1001.50 1001.40 1001.26 1001.74 1001.94 1002.14 1002.40 1002.21 1001.96 1001.39 1001.09 1001.02 1000.80 1000.80 1000.76 1000.52 1000.32 1000.37 1000.25 999.96 999.29 998.09 997.70 997.17 996.37 995.77 994.91 993.92 994.03 994.11 994.28
1010.57 1010.96 1010.92 1009.36 1008.49 1006.91 1004.62 1004.19 1004.32 1003.67 1002.78 1002.06 1001.87 1001.78 1001.67 1001.68 1002.03 1002.10 1002.22 1001.97 1001.69 1001.52 1001.51 1001.45 1000.84 1000.38 1000.13 999.85 999.66 999.90 1000.12 999.54 998.88 997.94 997.20 996.70 996.05 995.24 994.59 993.13 992.50 992.77 993.16 993.55
1010.25 1010.96 1011.18 1010.13 1008.36 1006.49 1005.15 1004.71 1004.37 1003.98 1003.03 1002.74 1002.21 1001.96 1002.12 1002.39 1002.31 1001.82 1001.44 1001.64 1002.31 1002.02 1001.53 1001.00 1000.61 1000.05 999.66 999.38 999.20 999.18 999.01 998.48 997.82 996.91 996.44 995.50 994.87 994.14 993.14 991.36 991.24 991.81 992.47 993.18
1010.92 1011.35 1011.34 1010.07 1008.70 1006.52 1005.62 1005.48 1005.46 1005.03 1003.67 1003.24 1003.69 1003.51 1003.25 1002.90 1001.86 1001.15 1001.32 1002.02 1001.84 1001.35 1000.96 1000.38 1000.17 999.83 999.43 999.01 998.77 998.37 997.80 997.33 996.63 995.43 994.78 993.86 993.47 992.31 991.12 990.15 990.57 991.49 992.22 992.97
1010.75 1011.16 1010.78 1009.78 1008.56 1006.67 1006.28 1006.14 1006.03 1005.52 1005.19 1004.93 1004.45 1003.96 1003.41 1002.98 1002.38 1002.30 1002.07 1001.51 1001.08 1000.64 1000.37 1000.21 999.89 999.70 999.27 998.71 998.09 997.46 996.66 996.19 995.78 994.79 993.60 991.89 991.50 990.09 989.78 990.48 991.18 991.87 992.52 993.53
1009.77 1009.78 1009.63 1009.42 1008.29 1007.05 1007.01 1006.80 1006.68 1006.11 1005.62 1005.48 1004.98 1004.27 1003.64 1003.05 1002.15 1001.47 1001.17 1000.78 1000.45 1000.18 999.88 1000.21 999.99 999.11 998.38 998.13 997.36 996.64 995.95 995.14 994.81 993.53 991.99 989.61 988.42 988.77 989.57 990.49 991.33 992.20 992.92 993.56
1009.46 1009.58 1009.77 1009.20 1007.78 1007.11 1006.83 1006.95 1006.93 1007.00 1006.97 1006.35 1005.65 1004.52 1003.27 1002.08 1001.17 1000.64 1000.37 1000.24 1000.02 999.95 1000.38 1000.05 999.33 998.26 997.78 997.29 996.57 995.65 994.90 993.57 992.44 991.03 988.65 988.00 988.60 989.11 989.72 990.58 991.50 992.45 993.25 993.89
1010.40 1010.37 1010.04 1009.73 1008.13 1007.67 1007.63 1007.39 1006.94 1006.60 1005.91 1005.15 1004.60 1003.66 1002.46 1001.41 1000.64 1000.23 1000.05 999.85 999.72 1000.18 1000.12 999.65 998.78 997.62 996.70 996.15 995.50 994.71 993.54 992.49 991.43 990.56 990.09 989.67 989.77 989.92 990.57 991.38 992.12 992.76 993.48 994.44
1012.47 1012.16 1012.09 1010.51 1009.08 1009.09 1007.86 1007.84 1006.97 1006.08 1005.26 1004.42 1003.63 1002.84 1001.97 1001.29 1000.63 1000.47 1000.24 1000.10 1000.35 1000.26 999.71 999.17 998.23 997.17 995.98 996.02 994.90 993.74 992.83 992.28 991.60 991.44 991.06 990.62 990.61 990.80 991.36 992.16 992.54 992.99 994.01 994.21
1013.93 1013.71 1013.54 1011.99 1010.97 1010.61 1008.97 1007.66 1006.75 1005.27 1004.87 1004.54 1003.87 1003.18 1002.76 1002.23 1001.79 1001.40 1000.63 1000.42 1000.22 999.59 999.08 998.70 998.00 997.10 996.05 995.02 994.42 993.05 992.38 992.16 992.02 992.11 991.39 991.11 991.33 991.55 991.90 992.63 993.66 994.60 995.09 995.93
Wind_Speed
6 10 11 8 6 9 8 8 9 4 1 10 14 14 11 14 15 14 13 13 10 9 3 1 5 6 9 9 9 9 9 8 7 5 4 2 9 8 10 11 15 15 15 16
9 13 0 4 6 9 9 9 9 5 6 8 14 17 16 16 17 19 19 18 14 9 6 2 4 6 7 8 9 10 9 9 9 7 6 5 7 9 10 9 11 14 16 15
13 3 4 7 7 10 10 10 5 10 6 14 17 21 23 16 10 11 12 14 9 7 3 2 4 9 9 9 10 9 10 9 8 7 6 7 8 10 12 11 10 11 15 17
7 2 10 8 9 8 12 8 6 8 10 10 4 8 5 9 10 9 9 9 10 7 4 3 4 4 5 6 8 9 10 10 8 9 7 7 9 11 10 9 9 8 13 16
5 7 11 10 11 8 10 2 8 10 13 15 16 10 9 5 8 9 7 6 7 4 3 1 3 4 7 8 7 8 12 12 10 9 10 9 10 10 10 10 11 9 9 14
13 2 7 9 2 7 2 9 13 13 13 13 19 10 9 10 9 8 5 6 3 1 3 3 5 5 6 7 9 9 9 10 12 12 11 11 12 12 12 12 11 10 9 10
14 13 6 8 12 9 11 11 11 10 11 8 7 7 12 8 3 4 4 3 3 4 4 6 7 8 7 9 10 9 12 14 14 14 14 13 14 14 15 15 12 12 9 10
11 10 14 11 13 11 6 8 10 8 8 6 12 8 4 5 2 3 5 5 3 5 6 10 12 10 10 10 11 12 13 13 13 14 16 14 15 11 12 13 12 12 10 10
14 14 5 6 5 9 5 11 6 11 15 13 11 6 9 9 8 6 3 5 8 7 8 11 11 11 13 13 13 13 13 14 14 15 14 15 15 15 15 17 15 13 12 13
8 13 10 6 7 9 12 5 7 10 10 16 9 9 4 11 4 4 5 5 8 11 14 14 13 12 11 13 14 15 15 16 16 16 15 14 15 16 16 16 17 16 14 14
9 9 13 7 13 16 9 13 10 8 7 8 9 2 10 2 2 4 7 11 13 14 14 13 13 13 13 13 12 12 15 17 17 16 17 16 16 16 16 17 17 17 17 16
6 7 12 15 10 5 13 16 14 11 12 10 12 13 5 3 2 6 13 16 14 13 14 13 13 12 13 13 13 12 12 15 18 18 18 18 17 16 17 18 19 19 18 17
4 9 11 14 8 8 11 15 15 15 16 16 13 6 9 7 12 15 15 16 15 14 14 14 14 13 13 12 13 15 15 16 18 19 18 18 18 17 19 19 20 19 19 18
5 15 18 15 16 6 7 8 11 15 13 15 21 21 19 19 20 17 14 16 17 15 15 15 14 14 15 14 14 15 17 17 17 20 18 19 19 19 19 18 21 19 19 20
13 19 18 19 18 18 18 20 21 22 22 23 23 26 22 21 20 17 14 16 17 17 18 17 15 15 16 17 16 16 17 18 16 20 20 19 19 20 20 20 21 19 19 19
13 16 18 21 20 21 20 23 25 26 26 27 28 30 24 24 19 12 15 16 19 19 19 18 20 21 18 19 18 18 19 19 20 20 21 20 18 20 20 19 20 19 20 20
12 10 11 16 17 12 13 22 23 23 25 24 25 22 16 10 12 13 15 18 22 22 21 20 20 18 18 19 19 19 20 22 18 21 20 20 19 21 18 21 19 20 19 18
17 12 7 8 9 11 13 4 8 13 14 12 18 16 15 13 11 16 18 21 18 18 19 22 20 20 21 21 21 18 19 23 20 21 19 20 20 19 17 22 20 18 17 18
17 15 6 7 9 16 16 11 8 8 13 11 11 11 9 14 20 20 17 13 15 21 20 19 20 23 23 22 19 18 20 16 20 20 21 23 20 21 18 21 19 17 16 16
9 12 9 6 6 5 3 3 4 6 14 7 5 13 18 21 16 15 19 19 21 22 21 20 22 24 24 21 18 19 16 18 17 20 21 23 22 19 18 15 15 15 15 16
3 3 11 13 6 6 6 5 4 7 4 17 19 22 22 20 18 20 22 23 22 21 23 22 22 19 20 17 16 17 19 16 16 20 23 25 24 20 14 11 10 13 14 14
3 3 3 6 6 4 7 10 8 15 19 22 25 23 22 21 23 22 21 23 23 23 22 20 19 19 17 16 15 18 16 17 15 19 23 27 11 10 13 15 13 14 15 15
3 6 5 4 6 16 11 14 17 16 17 17 18 20 23 24 24 24 22 23 23 19 17 17 20 18 16 14 15 18 16 16 18 18 14 11 11 8 12 14 13 12 14 14
4 8 5 9 1 16 16 18 16 18 19 19 20 24 25 25 25 25 23 22 20 16 16 18 20 20 20 17 16 17 16 17 17 15 10 5 7 10 11 10 11 11 12 13
6 9 11 13 15 18 9 17 20 22 21 20 22 24 25 26 25 25 23 23 17 17 19 16 18 19 18 17 18 16 14 13 13 12 9 3 6 9 11 9 10 14 12 13
2 4 4 7 20 14 16 21 26 19 24 23 24 25 25 25 23 23 19 16 15 19 17 17 19 19 18 17 18 15 12 11 7 9 4 6 7 8 10 12 13 24 16 16
Wind_Direction
198 246 225 240 243 307 287 269 264 230 210 269 254 255 246 245 249 237 235 245 244 223 208 339 63 23 6 19 18 2 357 353 339 342 285 257 274 242 236 229 229 222 218 216
218 238 172 263 245 235 238 243 238 268 269 283 275 269 269 259 252 250 244 234 226 200 208 155 25 19 19 9 7 349 354 356 338 327 350 352 298 280 255 232 222 223 221 213
262 42 129 229 193 221 224 257 259 276 314 272 267 279 252 239 239 243 241 240 205 209 179 14 21 28 353 355 1 339 339 341 332 311 279 259 253 247 255 246 235 217 217 214
262 89 217 225 246 244 252 201 267 272 274 278 146 291 230 220 244 200 187 182 196 161 143 103 4 0 355 342 327 326 347 332 309 317 291 275 274 275 276 271 247 231 215 215
103 190 203 246 260 212 282 190 262 281 271 279 262 245 244 179 187 166 165 163 159 145 124 5 356 330 328 335 336 337 333 327 320 309 293 293 283 282 282 276 270 251 237 220
266 227 263 279 203 232 94 239 239 242 256 246 241 222 210 186 202 150 133 134 131 280 262 309 320 313 318 322 330 327 322 323 328 317 296 287 286 284 280 277 272 253 237 220
229 227 215 234 216 198 229 245 267 231 200 244 110 231 266 142 166 206 284 251 254 271 282 309 317 317 310 310 318 317 327 327 325 315 301 294 286 281 277 270 265 264 245 234
276 244 197 184 234 291 235 298 280 276 275 281 156 243 123 139 146 323 292 276 248 238 334 321 317 312 300 305 306 309 309 308 308 307 302 294 288 283 279 267 259 254 242 227
265 240 141 238 229 249 199 239 337 291 268 259 246 199 211 215 222 185 204 220 250 263 294 302 303 301 307 303 300 302 298 296 300 299 295 288 285 275 275 276 275 262 243 250
286 271 234 170 248 219 261 322 222 205 267 252 232 225 204 181 134 150 222 276 295 294 284 288 296 291 287 288 292 294 301 298 295 293 288 285 283 282 270 267 266 261 260 233
284 250 272 195 232 256 198 225 232 293 294 276 271 260 102 193 259 281 293 306 297 288 291 293 292 292 293 290 286 288 292 297 294 291 287 284 278 279 279 271 265 259 247 234
247 288 276 271 305 296 284 279 239 233 229 226 276 281 120 219 273 306 291 304 305 294 292 288 289 294 297 301 296 296 298 296 291 288 282 282 281 277 277 270 264 258 246 231
214 238 265 238 208 211 243 241 249 260 269 266 261 221 161 214 253 317 306 311 301 292 286 286 289 288 288 292 296 300 300 299 297 285 280 282 280 275 274 268 265 256 244 230
289 267 265 271 298 182 251 236 234 242 246 253 249 268 270 276 287 297 300 309 304 291 285 281 279 283 292 294 292 297 302 304 299 289 285 278 278 274 272 269 263 249 236 225
241 258 262 262 272 279 282 271 259 247 244 250 268 270 276 279 284 292 301 295 305 293 281 278 285 293 293 294 291 293 300 300 294 285 284 274 276 277 274 267 256 237 229 220
246 255 269 269 269 268 260 263 260 258 259 260 264 270 274 277 278 279 270 293 305 303 292 282 285 285 292 295 293 294 297 298 293 282 281 277 280 280 271 266 246 227 220 209
256 260 262 257 260 285 268 255 254 255 252 252 256 268 299 282 260 282 298 298 301 296 295 295 298 299 294 293 291 288 292 294 287 281 281 276 273 280 265 264 228 215 209 196
250 250 274 281 296 249 255 271 280 283 286 269 253 269 269 292 312 301 298 293 309 313 320 311 301 294 292 295 294 291 290 288 287 281 283 282 283 273 262 252 212 205 194 186
226 230 237 243 238 269 298 279 272 277 286 304 279 284 316 311 302 284 285 323 312 300 298 293 297 295 293 295 293 293 283 280 282 280 277 280 284 268 257 226 200 190 180 176
202 244 226 207 238 264 88 84 344 317 279 91 348 314 312 310 295 295 315 318 298 296 293 297 301 301 299 298 296 286 283 279 283 282 278 288 283 256 229 204 178 177 170 166
150 162 225 234 267 289 42 64 327 266 348 320 310 305 301 292 295 314 304 296 297 299 306 303 304 303 289 289 285 283 285 276 281 288 293 281 271 220 173 163 158 158 148 145
279 282 200 213 246 265 33 328 312 318 315 318 312 306 306 296 288 289 296 298 303 304 307 313 298 289 290 288 289 283 281 274 260 268 268 258 175 147 144 148 147 144 144 135
312 359 304 287 300 323 323 328 326 328 300 292 289 285 287 291 294 298 302 301 301 311 311 304 295 295 288 284 280 279 273 280 275 281 317 1 116 126 130 127 126 128 135 134
330 353 286 319 204 324 337 310 311 306 292 292 294 291 291 293 298 300 299 300 306 314 298 300 297 290 290 298 293 283 285 288 297 312 343 348 98 110 115 126 132 136 137 128
6 320 342 284 282 338 304 319 308 309 302 306 307 305 303 300 301 311 307 305 305 293 296 298 293 293 300 298 293 284 284 290 300 323 310 122 110 113 114 93 130 137 138 135
336 345 308 291 310 291 273 291 294 319 324 316 315 315 312 309 304 302 297 299 295 295 300 294 289 291 289 296 297 285 282 281 293 303 307 106 104 124 125 120 88 49 73 66